Temp
-6 -6 -6 -6 -6 -7 -7 -7 -7 -8 -8 -7 -8 -8 -7 -8 -8 -7 -7 -7 -7 -7 -7 -7 -7 -7 -6 -6 -6 -6 -6 -5 -6 -6 -5 -5 -5 -5 -6 -6 -6 -6 -6
-6 -6 -6 -6 -6 -7 -7 -7 -7 -7 -8 -8 -8 -8 -8 -8 -8 -7 -7 -7 -7 -7 -7 -7 -7 -7 -6 -6 -6 -6 -6 -6 -6 -5 -5 -5 -6 -5 -5 -6 -6 -6 -6
-6 -6 -6 -6 -6 -6 -6 -7 -7 -7 -7 -7 -7 -7 -7 -7 -7 -7 -7 -7 -7 -7 -7 -7 -7 -6 -6 -6 -7 -6 -6 -6 -6 -6 -5 -5 -5 -6 -6 -6 -6 -6 -6
-6 -6 -6 -6 -6 -6 -6 -6 -7 -7 -7 -7 -7 -7 -7 -7 -7 -7 -7 -7 -7 -7 -7 -7 -7 -7 -7 -7 -7 -7 -7 -6 -6 -6 -6 -6 -5 -6 -6 -6 -6 -5 -5
-6 -6 -7 -7 -7 -7 -7 -7 -7 -7 -7 -7 -7 -7 -8 -8 -8 -8 -8 -8 -8 -7 -7 -7 -8 -8 -7 -7 -7 -7 -6 -6 -6 -6 -6 -6 -6 -5 -5 -6 -6 -6 -6
-6 -6 -7 -7 -7 -7 -7 -7 -7 -7 -7 -8 -8 -7 -7 -7 -7 -8 -8 -8 -8 -8 -8 -8 -8 -8 -8 -7 -7 -7 -7 -7 -6 -6 -6 -6 -6 -6 -5 -6 -6 -6 -6
-7 -7 -7 -7 -7 -7 -7 -7 -7 -7 -7 -7 -8 -8 -7 -7 -7 -7 -8 -8 -8 -8 -8 -8 -8 -9 -8 -7 -7 -7 -7 -7 -7 -7 -6 -6 -6 -6 -6 -5 -5 -5 -6
-7 -7 -7 -7 -7 -7 -7 -7 -7 -7 -8 -8 -7 -7 -7 -7 -7 -7 -7 -7 -8 -8 -8 -8 -8 -8 -9 -8 -7 -7 -7 -7 -7 -7 -7 -7 -6 -6 -5 -5 -6 -6 -6
-8 -7 -7 -7 -7 -7 -7 -7 -7 -7 -7 -7 -7 -7 -7 -7 -7 -7 -7 -7 -7 -7 -8 -8 -8 -8 -8 -8 -7 -7 -6 -6 -7 -7 -7 -7 -7 -6 -5 -6 -6 -6 -5
-8 -8 -8 -8 -7 -8 -8 -7 -7 -7 -7 -7 -7 -7 -7 -7 -7 -7 -7 -7 -7 -7 -7 -7 -7 -8 -7 -7 -7 -7 -7 -6 -6 -7 -6 -6 -7 -7 -7 -6 -5 -5 -5
-7 -8 -9 -9 -8 -8 -8 -8 -8 -8 -8 -7 -7 -7 -7 -7 -7 -7 -7 -7 -7 -7 -7 -7 -7 -8 -7 -7 -7 -7 -7 -7 -7 -7 -6 -6 -6 -6 -7 -7 -6 -6 -6
-8 -8 -8 -8 -9 -9 -9 -8 -8 -8 -8 -7 -7 -7 -7 -7 -7 -7 -7 -7 -7 -7 -6 -7 -7 -7 -7 -7 -7 -7 -7 -6 -6 -7 -7 -7 -6 -6 -7 -7 -7 -6 -6
-8 -8 -9 -9 -9 -10 -9 -9 -8 -8 -8 -8 -8 -7 -7 -7 -7 -6 -7 -6 -7 -7 -7 -7 -7 -7 -6 -6 -6 -6 -6 -6 -6 -6 -6 -7 -7 -6 -7 -7 -7 -7 -7
-9 -9 -9 -9 -8 -9 -9 -9 -9 -9 -9 -8 -8 -7 -7 -7 -7 -7 -7 -7 -7 -7 -7 -7 -7 -6 -6 -6 -6 -6 -6 -6 -6 -6 -7 -7 -7 -7 -7 -7 -7 -7 -7
-9 -8 -8 -7 -7 -6 -7 -9 -9 -9 -9 -9 -8 -8 -8 -7 -7 -7 -7 -6 -6 -6 -6 -6 -7 -7 -7 -7 -7 -7 -7 -7 -6 -6 -7 -7 -7 -7 -7 -7 -8 -8 -8
-9 -10 -9 -8 -9 -8 -9 -8 -8 -8 -9 -9 -8 -8 -7 -7 -7 -7 -7 -7 -7 -7 -7 -7 -6 -6 -6 -6 -7 -7 -7 -8 -7 -7 -7 -7 -8 -7 -8 -8 -8 -8 -8
-9 -8 -9 -9 -10 -8 -9 -9 -9 -9 -9 -8 -8 -8 -8 -7 -7 -7 -7 -7 -7 -7 -7 -7 -7 -7 -7 -7 -7 -7 -7 -8 -8 -9 -9 -9 -8 -8 -8 -8 -9 -9 -8
-9 -9 -8 -9 -10 -10 -10 -8 -9 -9 -9 -8 -8 -8 -8 -8 -8 -7 -7 -7 -7 -7 -7 -7 -7 -8 -8 -8 -8 -8 -8 -8 -9 -9 -10 -10 -9 -10 -10 -9 -9 -9 -10
-9 -10 -10 -10 -10 -9 -9 -10 -9 -9 -9 -9 -8 -8 -9 -8 -8 -8 -8 -8 -8 -8 -8 -8 -8 -8 -8 -8 -8 -9 -9 -9 -10 -10 -10 -10 -10 -10 -10 -10 -10 -10 -10
-10 -10 -10 -10 -9 -9 -10 -9 -10 -11 -10 -10 -10 -9 -9 -9 -8 -9 -9 -9 -8 -8 -8 -8 -8 -9 -9 -9 -9 -10 -10 -10 -10 -10 -10 -10 -11 -11 -10 -10 -10 -10 -10
-10 -10 -10 -10 -10 -10 -10 -10 -10 -10 -10 -10 -10 -9 -9 -9 -9 -9 -9 -9 -9 -9 -9 -9 -9 -10 -10 -10 -10 -10 -10 -10 -11 -10 -11 -10 -11 -11 -11 -11 -11 -10 -10
-10 -10 -10 -10 -10 -10 -10 -10 -10 -11 -11 -10 -10 -9 -9 -9 -9 -9 -9 -10 -10 -10 -10 -10 -10 -10 -10 -10 -11 -10 -11 -11 -11 -11 -11 -11 -11 -11 -11 -11 -11 -11 -11
-10 -10 -10 -11 -11 -11 -11 -10 -11 -11 -11 -10 -10 -10 -10 -10 -10 -10 -10 -10 -10 -10 -10 -10 -10 -10 -11 -11 -11 -11 -11 -11 -11 -11 -11 -11 -12 -12 -12 -12 -12 -12 -12
-10 -10 -10 -11 -11 -11 -11 -11 -11 -11 -11 -10 -10 -10 -10 -10 -10 -10 -10 -10 -10 -10 -11 -11 -11 -11 -11 -11 -11 -11 -12 -12 -12 -12 -12 -12 -12 -12 -12 -12 -12 -12 -12
-11 -11 -11 -11 -11 -11 -11 -12 -11 -11 -10 -10 -10 -10 -10 -11 -11 -11 -11 -11 -11 -11 -11 -11 -11 -11 -12 -12 -12 -12 -12 -12 -12 -13 -13 -13 -13 -13 -13 -13 -13 -13 -13
-12 -11 -11 -11 -11 -12 -12 -11 -11 -11 -11 -11 -11 -11 -11 -11 -12 -12 -12 -12 -12 -12 -12 -12 -12 -12 -12 -12 -12 -13 -13 -13 -13 -13 -13 -13 -13 -13 -13 -13 -13 -13 -14
Height
5913 5913 5911 5910 5910 5910 5910 5910 5911 5911 5911 5911 5910 5910 5912 5912 5911 5911 5911 5909 5908 5906 5903 5904 5905 5907 5908 5908 5908 5909 5908 5908 5909 5909 5911 5912 5914 5915 5916 5918 5920 5921 5924
5913 5913 5911 5910 5910 5910 5910 5911 5911 5911 5910 5909 5909 5909 5910 5910 5910 5910 5909 5908 5905 5905 5904 5904 5905 5904 5904 5904 5904 5904 5905 5905 5905 5905 5907 5908 5909 5910 5911 5914 5915 5916 5917
5913 5913 5912 5910 5909 5909 5910 5910 5910 5910 5910 5909 5908 5908 5909 5908 5908 5908 5907 5906 5906 5904 5903 5903 5903 5901 5900 5900 5900 5899 5900 5901 5901 5901 5901 5902 5904 5905 5906 5908 5909 5910 5910
5912 5912 5911 5910 5910 5909 5909 5910 5910 5909 5909 5908 5908 5908 5908 5907 5906 5906 5905 5904 5903 5902 5902 5901 5901 5899 5898 5897 5897 5896 5896 5895 5895 5896 5897 5896 5898 5900 5901 5902 5903 5905 5905
5910 5910 5911 5910 5910 5910 5909 5909 5909 5909 5908 5908 5908 5908 5907 5905 5905 5903 5902 5901 5899 5897 5898 5897 5896 5896 5895 5894 5893 5894 5893 5892 5891 5890 5891 5891 5891 5893 5894 5895 5896 5897 5898
5906 5907 5908 5909 5909 5909 5909 5909 5908 5907 5906 5906 5906 5906 5906 5904 5903 5901 5900 5898 5896 5894 5894 5894 5892 5891 5890 5890 5890 5890 5889 5889 5888 5887 5887 5887 5886 5886 5886 5888 5888 5888 5890
5901 5902 5904 5906 5907 5907 5906 5906 5907 5906 5904 5904 5904 5904 5903 5902 5900 5898 5896 5895 5893 5892 5891 5889 5888 5886 5884 5884 5884 5883 5883 5883 5882 5882 5882 5881 5881 5881 5880 5880 5880 5880 5880
5897 5899 5899 5900 5903 5903 5903 5903 5903 5902 5900 5900 5900 5900 5898 5896 5895 5894 5892 5890 5889 5888 5886 5884 5882 5880 5877 5875 5876 5877 5877 5877 5876 5876 5876 5876 5876 5874 5874 5873 5872 5871 5872
5890 5894 5896 5896 5896 5898 5898 5898 5898 5898 5897 5896 5895 5895 5893 5892 5891 5889 5888 5886 5884 5883 5882 5880 5878 5875 5873 5870 5869 5870 5871 5871 5870 5870 5869 5868 5869 5869 5868 5866 5865 5864 5864
5883 5886 5888 5889 5889 5891 5891 5893 5893 5892 5891 5891 5890 5889 5888 5888 5886 5885 5884 5882 5880 5879 5877 5875 5873 5871 5869 5867 5865 5865 5864 5864 5863 5862 5861 5860 5860 5860 5861 5860 5858 5857 5856
5870 5872 5877 5880 5881 5884 5885 5886 5887 5886 5886 5885 5884 5883 5882 5881 5880 5879 5878 5877 5875 5873 5870 5870 5868 5866 5864 5863 5861 5858 5858 5856 5855 5853 5853 5852 5851 5851 5852 5851 5851 5850 5848
5863 5867 5868 5869 5871 5875 5877 5877 5877 5877 5878 5878 5877 5876 5876 5875 5874 5873 5872 5871 5869 5868 5867 5865 5863 5861 5859 5857 5855 5853 5851 5850 5847 5845 5843 5841 5841 5842 5841 5841 5842 5841 5841
5848 5852 5856 5856 5861 5861 5868 5869 5870 5871 5871 5870 5870 5869 5868 5869 5867 5866 5865 5864 5863 5862 5861 5859 5858 5856 5854 5853 5851 5848 5845 5843 5840 5838 5836 5833 5831 5830 5830 5831 5831 5831 5830
5838 5842 5840 5847 5848 5851 5854 5856 5858 5861 5862 5863 5862 5860 5859 5859 5858 5857 5856 5855 5855 5854 5853 5852 5850 5848 5845 5844 5842 5839 5837 5835 5832 5830 5827 5825 5823 5821 5819 5818 5820 5819 5820
5829 5834 5837 5832 5838 5818 5832 5842 5846 5850 5854 5854 5855 5854 5853 5852 5851 5850 5848 5846 5845 5844 5843 5842 5840 5838 5836 5835 5832 5830 5827 5824 5822 5820 5817 5815 5813 5811 5809 5808 5807 5807 5809
5818 5822 5828 5828 5828 5827 5825 5841 5841 5841 5844 5846 5847 5847 5846 5844 5842 5841 5839 5838 5836 5835 5833 5832 5830 5829 5826 5823 5821 5818 5816 5813 5811 5809 5806 5805 5804 5801 5799 5798 5796 5795 5795
5809 5816 5818 5824 5827 5827 5826 5823 5829 5831 5833 5837 5838 5837 5838 5838 5835 5833 5831 5829 5828 5825 5823 5820 5818 5817 5815 5813 5811 5808 5806 5803 5801 5799 5796 5794 5792 5792 5789 5787 5788 5786 5783
5795 5796 5797 5812 5814 5817 5821 5814 5814 5820 5826 5830 5829 5829 5830 5828 5826 5824 5821 5818 5817 5814 5812 5809 5807 5806 5804 5801 5798 5796 5793 5791 5789 5787 5785 5784 5782 5780 5780 5779 5777 5776 5772
5791 5793 5796 5802 5805 5808 5809 5810 5812 5816 5818 5821 5821 5819 5818 5817 5815 5813 5809 5806 5805 5803 5800 5797 5794 5792 5791 5789 5786 5783 5781 5780 5778 5775 5774 5772 5771 5770 5769 5769 5768 5767 5765
5784 5788 5793 5796 5798 5802 5802 5802 5803 5807 5809 5809 5810 5809 5807 5805 5803 5802 5798 5795 5793 5789 5787 5785 5783 5780 5777 5775 5772 5770 5767 5766 5766 5765 5763 5762 5761 5760 5758 5758 5757 5757 5755
5777 5780 5783 5786 5790 5792 5794 5795 5797 5796 5798 5799 5799 5798 5795 5792 5792 5789 5786 5783 5781 5779 5776 5774 5771 5769 5767 5765 5763 5760 5758 5755 5753 5754 5751 5750 5749 5748 5746 5745 5745 5744 5743
5767 5770 5775 5777 5780 5782 5783 5785 5787 5787 5787 5787 5787 5784 5782 5781 5779 5779 5775 5773 5770 5767 5764 5763 5761 5759 5757 5754 5751 5750 5749 5747 5744 5742 5740 5739 5737 5735 5733 5732 5730 5729 5729
5758 5761 5763 5765 5769 5771 5772 5775 5775 5776 5778 5778 5776 5773 5771 5771 5769 5767 5765 5763 5760 5758 5756 5754 5751 5750 5748 5744 5743 5739 5736 5735 5733 5730 5728 5727 5725 5722 5720 5718 5717 5716 5715
5748 5752 5756 5757 5759 5761 5763 5764 5767 5767 5768 5769 5767 5764 5763 5761 5760 5760 5756 5753 5751 5748 5746 5744 5740 5738 5734 5733 5732 5729 5727 5723 5719 5717 5714 5713 5712 5709 5707 5704 5703 5701 5699
5736 5740 5743 5747 5751 5752 5755 5756 5757 5757 5757 5755 5754 5752 5751 5750 5749 5746 5744 5741 5739 5736 5735 5733 5729 5726 5723 5720 5717 5714 5712 5709 5706 5704 5701 5698 5696 5693 5691 5688 5686 5684 5682
5729 5732 5733 5738 5743 5745 5746 5746 5747 5747 5747 5746 5745 5743 5742 5739 5736 5733 5732 5730 5728 5727 5723 5719 5714 5712 5710 5707 5704 5700 5697 5693 5690 5687 5685 5682 5679 5676 5673 5670 5668 5665 5663
Wind_Speed
3 1 2 2 2 3 4 4 3 2 2 6 7 6 4 6 2 5 6 8 8 8 11 15 12 9 12 13 13 13 11 9 11 15 15 16 13 15 18 16 16 18 20
3 4 2 2 3 3 5 5 4 3 2 4 3 2 2 2 5 6 6 9 8 6 3 2 5 8 11 12 13 15 13 11 13 16 13 15 14 14 16 21 17 22 23
5 2 0 2 3 6 6 4 3 4 4 4 4 4 3 3 3 5 7 9 9 8 8 8 9 9 10 10 11 12 15 17 17 18 20 19 16 16 17 20 23 24 23
9 8 5 1 2 5 5 3 2 1 1 2 2 1 2 3 5 8 10 13 14 12 10 11 12 13 13 12 12 12 15 17 17 18 21 25 24 22 22 21 23 25 27
14 12 10 7 5 5 5 5 4 3 2 3 2 1 2 4 6 8 11 11 15 12 13 12 12 14 16 17 17 17 18 18 18 19 20 21 24 24 23 25 26 27 28
18 17 14 13 10 9 9 6 5 5 3 2 4 6 8 9 10 14 13 12 9 7 8 13 17 18 19 19 19 20 20 20 20 21 21 21 20 22 25 24 24 27 24
22 22 19 18 16 14 12 10 8 7 5 5 6 8 9 11 12 14 12 12 11 10 10 12 15 19 24 25 23 21 20 21 22 23 22 23 22 21 23 23 25 24 29
30 26 24 21 21 19 17 13 11 10 7 8 9 10 11 12 13 12 12 11 11 11 11 12 14 15 16 21 26 25 23 23 24 25 26 25 25 23 24 25 29 26 26
32 28 25 24 22 21 21 18 16 15 15 13 13 13 14 14 13 14 13 13 14 14 14 15 17 17 18 15 18 25 27 27 27 28 27 28 29 27 25 26 28 22 23
29 37 26 24 23 23 23 24 21 19 19 18 17 16 16 16 15 14 14 15 17 16 15 16 18 19 15 16 13 17 25 29 31 31 32 32 31 30 29 29 27 27 25
34 37 32 26 24 26 25 26 27 23 23 22 21 19 19 18 16 15 15 17 19 18 19 21 22 20 20 21 20 20 21 22 25 32 37 38 36 34 32 32 30 30 29
36 40 34 33 30 28 29 30 31 29 26 25 23 23 22 22 21 19 18 19 20 21 23 23 23 24 24 25 25 25 24 25 28 29 31 35 39 38 37 36 35 33 33
40 46 39 35 35 32 34 30 32 31 28 29 25 24 23 23 23 22 22 22 22 24 26 27 27 27 28 27 28 30 31 30 28 30 31 32 35 39 41 41 39 38 37
46 47 43 40 40 36 38 34 32 31 29 27 26 26 25 26 26 25 25 26 26 26 27 27 28 29 30 29 29 29 30 32 33 35 34 33 35 35 38 41 43 43 41
52 43 46 40 43 30 35 39 35 32 28 28 29 27 27 27 27 28 30 29 30 31 31 33 33 34 34 33 33 33 33 34 35 37 36 36 35 33 33 37 42 47 44
46 40 35 39 49 58 23 34 35 34 30 26 28 29 29 29 28 30 31 33 34 34 34 35 36 37 39 40 40 39 37 35 35 36 36 37 35 33 34 39 39 41 44
53 55 36 40 44 50 42 54 58 34 23 24 27 27 30 32 33 33 33 34 35 36 37 38 39 41 43 43 44 44 45 42 37 39 39 36 35 32 29 28 29 31 32
42 55 30 37 35 38 41 52 42 21 20 29 30 34 37 37 34 34 35 36 36 36 38 39 41 43 44 44 45 45 45 43 40 40 40 39 36 33 33 32 29 24 33
47 46 37 46 40 36 40 36 30 29 27 33 34 38 38 37 37 38 36 35 36 36 37 38 40 41 41 43 44 43 40 39 39 40 43 41 39 37 35 35 34 34 35
50 49 47 44 41 40 39 29 19 21 29 34 33 36 37 35 37 38 36 35 36 37 37 38 39 39 38 37 36 34 34 35 37 40 38 38 38 37 37 38 39 39 37
53 49 49 47 43 40 31 25 34 30 33 35 35 35 36 38 38 37 36 36 35 35 35 37 37 37 37 36 34 32 33 33 34 37 36 36 37 36 35 36 37 38 39
59 53 49 46 43 43 40 33 34 32 37 36 36 38 38 37 36 38 35 32 31 31 32 33 34 34 35 35 35 36 36 37 37 38 39 40 41 42 42 41 41 41 41
50 47 42 44 43 43 38 41 41 34 36 37 38 35 35 36 36 34 32 32 31 31 33 33 34 36 36 36 38 38 39 41 41 41 43 44 44 44 45 45 46 47 47
47 45 42 40 44 41 42 33 30 36 39 36 35 36 37 33 31 31 30 31 33 34 35 36 36 38 37 40 42 43 45 45 44 44 45 45 47 47 47 49 50 50 51
38 37 36 40 42 30 27 31 37 37 36 35 35 34 33 31 32 33 34 36 36 36 38 39 40 41 43 44 46 46 48 48 49 51 51 52 53 54 53 54 54 54 54
37 38 29 24 23 27 32 35 34 33 33 34 33 32 34 34 33 33 34 36 38 39 40 39 39 41 42 44 46 46 48 50 51 53 55 56 57 58 59 59 60 60 60
Wind_Direction
300 227 146 153 174 177 186 187 176 142 211 243 250 248 227 266 304 237 270 303 325 2 213 205 204 243 248 247 251 258 261 252 233 251 262 261 275 257 248 247 230 233 228
271 245 210 152 184 183 147 158 158 148 104 112 136 141 202 257 293 297 304 307 316 314 281 229 252 250 250 251 253 255 259 251 249 256 260 264 260 270 240 245 253 238 231
240 225 189 126 142 172 171 158 131 142 116 106 106 104 82 39 9 353 344 329 312 293 282 272 257 249 246 249 249 253 256 255 253 257 264 262 263 266 260 262 249 267 249
240 233 214 188 156 149 150 155 160 180 235 198 135 22 356 339 331 330 332 320 302 299 293 281 274 272 272 267 264 257 257 256 258 261 263 264 263 259 259 261 253 252 254
234 238 238 226 223 215 203 204 206 204 203 178 186 78 324 331 303 306 312 324 340 278 275 282 285 279 275 274 272 269 269 270 269 269 268 265 265 266 259 258 260 260 257
226 235 239 240 227 224 238 241 238 231 209 247 270 282 279 291 279 282 301 304 318 352 305 291 282 277 269 268 269 273 276 278 278 274 273 270 263 263 266 269 270 260 273
231 226 230 239 241 235 233 241 247 250 245 258 263 278 287 301 299 285 292 284 297 302 317 300 298 290 274 264 262 266 272 276 279 280 278 276 274 272 268 269 263 258 269
241 230 228 230 241 244 246 247 251 259 264 269 273 280 287 297 298 292 287 289 288 296 313 313 320 319 316 274 263 263 266 270 274 279 281 281 277 272 273 270 267 274 270
239 240 231 236 240 247 250 250 255 259 265 265 270 275 283 288 288 290 288 289 298 303 306 312 318 326 320 324 277 263 266 270 274 275 276 281 281 277 270 274 276 280 270
237 237 227 235 242 251 253 253 251 254 260 264 269 277 280 283 289 292 287 290 292 297 304 309 312 315 311 308 301 283 273 271 271 269 271 271 275 279 277 270 268 270 266
258 236 214 224 238 251 259 261 257 253 254 260 268 275 277 280 283 286 283 291 296 302 302 301 305 305 305 307 303 290 291 287 276 273 270 269 271 272 271 271 267 265 268
245 219 243 224 235 249 259 259 253 250 253 258 263 270 273 277 280 281 284 285 289 294 296 297 301 301 303 304 302 301 297 293 287 283 279 274 267 267 269 269 268 265 263
250 235 224 217 231 235 252 259 254 253 256 260 264 266 270 273 273 277 277 278 285 290 294 296 299 301 300 304 306 305 301 299 289 287 290 286 277 269 267 266 268 266 265
246 252 219 226 225 232 239 245 247 249 255 262 261 259 262 267 272 277 282 288 290 290 289 289 288 290 292 294 296 297 298 296 292 292 290 288 288 284 273 270 266 263 266
251 253 240 226 243 228 229 235 239 243 252 261 260 260 264 268 271 276 280 282 282 283 287 289 291 291 290 292 293 294 296 297 293 292 287 288 288 281 275 269 267 265 261
243 249 252 258 266 261 247 254 252 238 252 254 258 262 266 269 272 273 274 276 279 282 284 284 285 287 288 289 291 291 291 290 288 286 284 285 283 281 274 272 270 267 258
235 244 239 254 261 266 261 288 261 236 234 248 258 266 271 275 277 276 277 277 279 280 279 280 282 283 284 286 287 289 290 291 279 277 275 279 282 283 281 280 273 276 276
243 243 242 253 260 271 287 286 232 223 244 258 267 275 278 281 283 280 277 278 280 280 280 282 285 287 289 289 289 288 288 288 283 273 273 275 275 274 276 273 281 272 276
237 250 252 258 266 270 276 281 261 255 263 266 276 280 279 274 274 274 277 280 282 282 285 286 285 285 285 285 287 290 291 289 282 275 274 275 274 275 275 275 277 274 273
237 241 247 252 257 264 278 269 265 267 265 270 277 280 279 278 276 274 277 281 283 283 282 281 282 281 281 283 284 285 284 283 280 279 278 277 277 276 277 277 277 278 278
237 242 249 251 253 266 256 249 244 275 269 275 281 277 277 275 273 277 279 279 282 283 282 279 278 279 282 282 284 284 284 281 278 279 278 277 277 277 276 276 276 276 276
238 244 248 254 253 259 265 264 268 263 270 276 276 276 275 274 275 275 278 279 279 280 281 281 281 283 282 284 286 285 284 282 281 279 278 278 277 278 279 278 277 275 273
238 242 247 249 251 254 257 266 270 262 271 273 272 274 273 272 274 276 277 279 282 284 284 284 285 285 286 286 285 285 284 283 282 281 280 279 277 276 276 275 276 276 275
234 238 242 243 246 249 258 255 261 269 271 270 271 272 273 276 280 279 281 284 284 286 288 288 287 286 289 289 289 288 287 287 285 284 283 282 281 280 279 278 276 274 273
236 241 233 239 247 241 244 257 263 268 267 267 268 269 271 274 275 281 284 286 287 287 286 285 286 288 290 290 290 290 289 288 288 287 286 284 283 281 280 279 278 277 277
234 239 229 226 237 248 256 260 261 262 264 265 267 271 275 278 283 285 286 288 286 284 285 288 291 290 290 291 291 291 291 290 289 288 286 284 283 282 282 281 280 279 278